GFSGL_prec_sndepth_057.txt.gz
Snowfall_Accumulation
0.0 0.0 0.0 0.0 0.0 0.0 0.0 0.0 0.0 0.0 0.0 0.0 0.0 0.0 0.0 0.0 0.0 0.0 0.0 0.0 0.0 0.0 0.0 0.0 0.0 0.0 0.0 0.0 0.0 0.0 0.0 0.0 0.5 0.1 0.0 0.0 0.0 0.0 0.0 0.0 0.0 0.0 0.0
0.0 0.0 0.0 0.0 0.0 0.0 0.0 0.0 0.0 0.0 0.0 0.0 0.0 0.0 0.0 0.0 0.0 0.0 0.0 0.0 0.0 0.0 0.0 0.0 0.0 0.0 0.1 0.0 0.0 0.0 0.0 0.0 0.2 0.2 0.0 0.0 0.0 0.0 0.0 0.0 0.0 0.0 0.0
0.0 0.0 0.0 0.0 0.0 0.0 0.0 0.0 0.0 0.0 0.0 0.0 0.0 0.0 0.0 0.0 0.0 0.0 0.0 0.0 0.0 0.0 0.0 0.0 0.0 0.1 0.2 0.3 0.0 0.1 0.1 0.1 0.1 0.3 0.2 0.0 0.0 0.0 0.0 0.0 0.0 0.0 0.0
0.0 0.0 0.0 0.0 0.0 0.0 0.0 0.0 0.0 0.0 0.0 0.0 0.0 0.0 0.0 0.0 0.0 0.0 0.0 0.0 0.0 0.0 0.0 0.0 0.0 0.0 0.1 0.2 0.2 0.3 0.3 0.6 0.5 0.3 0.2 0.0 0.0 0.0 0.0 0.0 0.0 0.0 0.0
0.0 0.0 0.0 0.0 0.0 0.0 0.0 0.1 0.1 0.1 0.0 0.0 0.0 0.0 0.0 0.0 0.0 0.0 0.0 0.1 0.1 0.1 0.1 0.1 0.0 0.0 nan nan 0.6 0.5 0.5 0.9 1.4 1.6 0.3 0.1 0.0 0.0 0.0 0.0 0.2 0.1 0.1
0.0 0.0 0.0 0.1 0.2 0.2 0.2 0.2 0.1 0.1 0.1 0.1 0.2 0.2 0.2 0.0 nan nan 0.1 0.2 0.3 0.1 0.2 0.1 0.2 0.4 0.4 nan nan nan nan 1.7 8.7 7.0 0.6 0.6 0.1 0.1 0.0 0.2 0.2 0.5 1.0
0.3 0.6 0.6 0.4 0.5 0.4 0.3 0.3 0.2 0.2 0.2 0.2 0.3 0.3 0.4 0.3 nan nan nan 0.6 0.6 0.3 0.3 0.4 0.6 0.6 0.4 0.4 nan nan nan nan nan 0.2 0.8 0.2 0.3 0.1 0.0 0.4 0.3 0.6 0.7
0.5 1.1 0.9 0.5 1.3 0.6 0.5 0.5 0.3 0.2 0.4 0.4 0.6 0.6 0.6 0.7 nan nan nan 0.6 0.7 0.6 0.5 0.6 0.8 1.0 0.9 0.7 0.5 1.2 0.6 0.4 0.2 0.1 0.2 0.3 0.2 0.2 0.6 0.9 1.6 1.9 1.4
0.2 0.4 0.5 0.9 1.7 0.8 2.4 0.8 0.5 1.2 1.0 1.9 1.8 3.4 3.1 3.0 nan nan 1.5 2.1 1.9 1.5 0.9 1.0 1.1 1.1 nan nan 2.2 4.4 2.2 0.9 nan nan nan nan nan nan nan 5.2 15.0 16.5 8.6
0.3 0.3 0.4 0.9 2.9 2.3 1.0 1.8 1.9 2.1 2.3 3.6 3.7 3.7 1.4 5.3 nan nan nan 5.8 6.5 4.2 2.5 1.2 0.6 1.2 nan nan 2.4 4.1 5.7 1.8 1.3 3.3 1.1 0.6 nan nan nan 0.6 4.9 16.3 8.6
0.8 0.9 1.1 1.1 3.4 1.7 2.1 1.7 3.0 4.5 3.3 5.5 5.4 4.6 5.0 2.9 3.1 nan nan 3.8 5.6 7.2 6.2 4.3 2.3 nan nan nan nan 4.1 4.2 2.3 6.9 5.4 4.2 3.8 2.1 1.5 1.8 1.4 0.7 2.6 7.1
1.7 2.0 2.7 4.4 3.5 3.4 7.6 4.7 7.2 6.8 7.2 6.9 7.6 6.8 5.8 3.4 nan nan nan nan nan 9.8 5.4 2.4 2.4 nan nan nan 2.0 nan nan 1.6 10.1 12.3 9.9 7.1 4.2 3.5 1.9 1.6 0.5 0.7 0.9
5.1 7.2 7.3 6.3 6.3 6.4 9.0 7.2 8.6 8.4 9.7 6.4 8.0 7.5 5.4 4.7 4.2 nan nan nan nan 4.8 3.3 2.6 nan nan nan nan nan nan 0.7 6.3 9.8 12.1 7.6 3.9 2.0 1.7 0.9 1.6 0.8 1.2 0.8
9.4 5.4 4.4 5.8 4.4 5.7 6.6 7.6 10.7 9.4 8.6 9.5 10.2 8.9 5.6 5.6 4.1 3.9 6.7 4.9 2.6 6.0 nan 4.7 nan 3.0 nan nan 2.9 2.9 4.5 5.5 6.3 7.1 5.2 2.2 1.9 3.1 4.9 3.5 5.4 4.7 8.6
6.7 3.9 4.7 6.3 7.1 4.5 3.9 5.9 5.3 3.4 6.9 12.6 14.6 10.6 13.3 13.5 9.4 4.3 10.3 12.9 11.5 11.3 9.0 15.1 12.5 7.9 7.1 5.8 7.1 6.4 5.2 6.6 7.8 7.3 7.6 6.9 6.0 6.0 5.3 4.2 5.1 7.3 10.0
3.9 5.4 4.8 4.8 4.3 3.9 4.3 4.2 nan nan nan nan nan 9.0 12.4 nan nan nan nan nan nan nan 21.5 24.3 12.5 9.3 6.7 6.6 8.3 8.1 7.2 6.0 6.8 7.9 8.4 7.5 8.0 6.6 7.1 7.9 7.5 9.1 10.1
6.2 4.6 6.0 4.7 5.0 5.5 5.7 6.7 7.8 4.4 nan nan nan nan nan nan nan nan nan nan nan nan 32.4 18.5 14.7 9.9 9.5 7.6 9.4 8.7 8.9 6.9 5.2 8.9 8.5 9.4 10.1 10.8 11.0 10.7 8.9 8.5 12.4
6.6 1.9 7.1 6.9 6.6 6.9 7.4 7.7 7.9 9.5 10.9 8.8 nan nan nan nan nan nan nan nan 26.5 nan 24.6 25.2 21.6 17.1 13.2 12.2 10.3 10.4 10.4 9.8 9.5 10.5 10.9 14.6 15.9 17.8 16.5 15.8 12.1 14.4 13.3
7.1 6.1 6.7 6.8 6.5 6.8 7.6 6.7 7.5 7.5 8.0 10.3 9.9 9.9 5.6 nan nan nan nan 18.5 26.3 23.0 22.7 23.7 20.0 19.0 16.0 16.9 16.0 17.8 15.1 15.7 15.2 19.9 19.9 21.4 19.2 19.9 19.2 13.5 10.6 6.5 7.7
7.7 3.2 5.9 10.2 8.6 7.7 5.6 7.6 6.9 7.3 8.3 9.8 10.3 8.9 15.5 15.6 22.4 23.3 19.1 26.1 26.4 23.7 21.0 23.2 23.9 26.6 26.7 24.4 23.8 22.0 22.3 23.0 20.9 22.3 22.3 20.7 19.0 19.7 13.9 18.3 15.6 13.6 14.5
13.2 11.4 2.4 10.0 12.3 12.5 12.5 10.0 7.8 11.0 9.9 12.0 9.3 8.8 nan 16.3 16.6 18.8 22.1 20.5 24.5 26.4 21.4 23.7 25.6 32.2 32.7 35.4 30.0 29.0 27.2 17.7 21.6 24.0 25.6 25.0 23.8 28.6 17.3 11.1 15.7 16.9 16.5
15.0 15.6 15.5 16.4 11.3 11.7 13.5 9.2 10.2 10.5 10.0 8.7 7.0 7.5 nan 9.7 12.5 13.2 15.3 20.8 25.0 24.9 28.3 33.2 32.9 35.7 32.2 29.9 27.3 25.1 21.2 25.1 26.9 25.6 21.3 22.3 25.9 22.3 21.0 14.4 14.9 12.9 16.7
12.6 11.1 12.0 11.8 11.3 5.9 12.7 14.9 13.0 12.3 11.1 12.3 10.7 10.5 12.9 17.1 14.4 13.7 21.2 24.2 19.5 18.7 21.6 22.7 21.3 21.4 19.9 23.2 20.6 19.9 21.7 24.6 25.6 32.5 23.7 24.5 23.7 26.7 23.2 20.3 17.5 19.0 17.4
11.4 11.6 11.1 15.0 13.1 10.7 13.0 14.0 12.0 5.7 12.5 13.6 23.4 18.3 10.2 14.0 21.6 16.4 17.7 21.1 17.3 28.9 20.8 22.2 18.2 17.9 19.9 29.4 36.4 35.9 38.4 40.1 39.1 36.4 32.6 23.4 23.5 19.1 19.7 21.5 16.9 15.2 13.3
14.4 11.9 12.0 11.0 17.8 13.9 13.0 16.0 10.8 15.7 19.1 14.9 18.4 13.3 14.4 13.9 15.8 22.1 20.6 16.7 18.8 17.2 14.9 15.0 15.4 15.9 16.2 17.0 23.8 30.2 29.8 4.3 20.0 4.7 28.8 20.7 25.2 26.0 24.8 20.3 18.6 15.7 12.9
11.5 12.2 12.8 13.4 13.0 14.4 15.2 14.9 15.5 12.1 15.9 17.3 16.4 16.8 14.6 14.7 14.7 17.8 16.5 16.6 13.5 14.2 14.6 15.8 15.5 13.4 12.7 14.8 15.9 6.7 4.0 3.5 24.3 4.0 23.5 19.9 23.4 22.6 22.1 22.2 20.5 18.5 14.8

GFSGL_prec_sndepth_060.txt.gz
Snowfall_Accumulation
0.0 0.0 0.0 0.0 0.0 0.0 0.0 0.0 0.0 0.0 0.0 0.0 0.0 0.0 0.0 0.0 0.0 0.0 0.0 0.0 0.0 0.0 0.0 0.0 0.0 0.0 0.0 0.0 0.0 0.0 0.0 0.0 0.5 0.1 0.0 0.0 0.0 0.1 0.0 0.0 0.0 0.0 0.0
0.0 0.0 0.0 0.0 0.0 0.0 0.0 0.0 0.0 0.0 0.0 0.0 0.0 0.0 0.0 0.0 0.0 0.0 0.0 0.0 0.0 0.0 0.0 0.0 0.0 0.0 0.1 0.0 0.0 0.0 0.0 0.0 0.2 0.2 0.1 0.1 0.1 0.1 0.0 0.0 0.0 0.0 0.0
0.0 0.0 0.0 0.0 0.0 0.0 0.0 0.0 0.0 0.0 0.0 0.0 0.0 0.0 0.0 0.0 0.0 0.0 0.0 0.0 0.0 0.0 0.0 0.0 0.0 0.1 0.2 0.3 0.0 0.1 0.1 0.1 0.1 0.4 0.3 0.2 0.2 0.1 0.0 0.0 0.0 0.0 0.0
0.0 0.0 0.0 0.0 0.0 0.0 0.0 0.0 0.0 0.0 0.0 0.0 0.0 0.0 0.0 0.0 0.0 0.0 0.0 0.0 0.0 0.0 0.0 0.0 0.0 0.0 0.1 0.2 0.2 0.3 0.3 0.6 0.5 0.5 0.4 0.2 0.1 0.0 0.0 0.0 0.0 0.0 0.0
0.0 0.0 0.0 0.0 0.0 0.0 0.0 0.1 0.1 0.1 0.0 0.0 0.0 0.0 0.0 0.0 0.0 0.0 0.0 0.1 0.1 0.0 0.1 0.1 0.0 0.0 nan nan 0.7 0.5 0.5 0.9 1.6 1.9 0.5 0.2 0.1 0.0 0.0 0.0 0.2 0.1 0.1
0.0 0.0 0.0 0.1 0.2 0.2 0.2 0.2 0.1 0.1 0.1 0.1 0.1 0.2 0.2 0.0 nan nan 0.1 0.2 0.3 0.1 0.2 0.2 0.3 0.5 0.4 nan nan nan nan 1.8 8.9 7.2 0.7 0.6 0.1 0.1 0.1 0.2 0.2 0.5 1.0
0.2 0.6 0.5 0.4 0.5 0.3 0.3 0.2 0.2 0.2 0.2 0.2 0.2 0.2 0.4 0.3 nan nan nan 0.5 0.6 0.3 0.3 0.5 0.8 0.7 0.4 0.4 nan nan nan nan nan 0.4 0.8 0.2 0.3 0.1 0.1 0.4 0.3 0.6 0.6
0.5 1.0 0.8 0.5 1.2 0.6 0.5 0.5 0.3 0.2 0.4 0.4 0.6 0.6 0.6 0.7 nan nan nan 0.6 0.7 0.6 0.6 0.7 1.0 1.2 1.0 0.7 0.6 1.4 1.0 0.9 0.4 0.2 0.2 0.3 0.2 0.2 0.6 0.9 1.6 1.9 1.4
0.2 0.4 0.5 0.9 1.6 0.8 2.4 0.8 0.5 1.2 1.0 1.9 1.7 3.4 3.1 3.0 nan nan 1.4 2.1 1.9 1.7 1.1 1.3 1.3 1.3 nan nan 2.4 4.9 3.4 1.6 nan nan nan nan nan nan nan 5.2 15.0 16.5 8.6
0.3 0.2 0.4 0.9 3.0 2.3 1.0 1.8 1.9 2.1 2.3 3.6 3.7 3.6 1.4 5.2 nan nan nan 5.8 6.7 4.4 2.8 1.7 0.9 1.5 nan nan 2.8 4.8 6.3 1.8 1.4 3.3 1.1 0.6 nan nan nan 0.6 4.9 16.3 8.6
0.8 0.9 1.1 1.1 3.4 1.7 2.1 1.7 3.0 4.5 3.3 5.4 5.4 4.6 5.0 2.9 3.0 nan nan 4.1 6.1 8.0 7.0 4.8 2.7 nan nan nan nan 4.5 4.4 2.4 7.1 5.5 4.3 3.9 2.1 1.5 1.8 1.4 0.7 2.7 7.4
1.7 2.1 2.7 4.4 3.5 3.4 7.6 4.7 7.2 6.8 7.2 6.9 7.5 6.8 5.8 3.4 nan nan nan nan nan 10.3 5.9 2.9 2.8 nan nan nan 2.1 nan nan 2.0 10.3 12.3 9.9 7.1 4.2 3.5 1.9 1.6 0.5 0.7 0.9
5.1 7.2 7.3 6.3 6.3 6.4 9.0 7.2 8.6 8.4 9.6 6.4 8.0 7.5 5.5 5.0 4.7 nan nan nan nan 5.2 3.5 2.9 nan nan nan nan nan nan 0.9 6.6 9.9 12.2 7.7 3.9 2.2 1.7 0.9 1.6 0.8 1.2 0.8
9.3 5.4 4.4 5.8 4.4 5.7 6.6 7.6 10.6 9.4 8.6 9.5 10.4 9.2 6.0 5.8 4.4 3.9 6.8 4.5 2.5 6.0 nan 4.4 nan 3.0 nan nan 3.1 3.0 4.8 5.7 6.5 7.3 5.4 2.4 2.0 3.2 4.9 3.5 5.4 4.7 8.6
6.7 3.9 4.7 6.3 7.0 4.5 3.9 5.9 5.3 3.4 6.8 12.5 14.5 10.5 13.3 13.4 9.4 4.3 10.3 12.9 10.9 10.9 9.0 14.9 12.5 8.0 7.2 5.9 7.4 6.7 5.8 7.0 8.1 7.5 7.7 7.0 6.1 6.1 5.4 4.2 5.1 7.3 10.0
3.9 5.4 4.8 4.8 4.3 3.9 4.3 4.2 nan nan nan nan nan 8.7 12.3 nan nan nan nan nan nan nan 21.5 24.2 12.6 9.4 6.9 6.7 8.5 8.1 7.3 6.1 6.8 7.9 8.5 7.6 8.1 6.6 7.1 7.9 7.5 9.1 10.1
6.1 4.6 6.0 4.7 5.0 5.5 5.7 6.7 7.8 4.4 nan nan nan nan nan nan nan nan nan nan nan nan 32.2 18.4 14.8 9.9 9.6 7.7 9.5 8.8 8.9 6.9 5.2 8.9 8.5 9.4 10.1 10.8 11.0 10.6 8.9 8.5 12.3
6.6 1.9 7.1 6.9 6.6 6.9 7.4 7.7 7.9 9.5 10.9 8.8 nan nan nan nan nan nan nan nan 26.3 nan 24.5 25.0 21.4 17.0 13.3 12.2 10.3 10.4 10.4 9.8 9.5 10.5 10.9 14.6 15.8 17.8 16.4 15.8 12.1 14.4 13.2
7.1 6.1 6.7 6.8 6.5 6.8 7.6 6.7 7.5 7.5 8.0 10.3 9.9 9.9 5.6 nan nan nan nan 18.5 26.2 22.9 22.6 23.6 19.9 19.0 15.9 16.9 16.0 17.8 15.1 15.7 15.1 19.8 19.8 21.3 19.1 19.8 19.2 13.4 10.6 6.5 7.7
7.6 3.2 5.9 10.2 8.6 7.7 5.6 7.6 6.9 7.3 8.3 9.8 10.3 9.0 15.5 15.5 22.3 23.2 19.0 26.0 26.3 23.6 20.9 23.1 23.8 26.5 26.6 24.3 23.7 21.9 22.2 22.9 20.9 22.2 22.3 20.7 18.9 19.6 13.8 18.3 15.6 13.6 14.5
13.2 11.3 2.4 9.9 12.3 12.4 12.5 10.0 7.8 11.0 9.8 12.0 9.3 8.8 nan 16.3 16.5 18.8 22.0 20.4 24.5 26.3 21.4 23.6 25.5 32.1 32.6 35.2 29.9 28.9 27.1 17.7 21.6 23.9 25.5 25.0 23.7 28.5 17.3 11.1 15.7 16.9 16.5
15.0 15.5 15.5 16.3 11.3 11.7 13.5 9.2 10.2 10.5 10.0 8.8 7.0 7.6 nan 9.7 12.5 13.2 15.3 20.7 24.9 24.8 28.2 33.1 32.7 35.6 32.0 29.8 27.2 25.0 21.2 25.0 26.8 25.5 21.2 22.2 25.8 22.3 20.9 14.3 14.8 12.9 16.7
12.6 11.1 11.9 11.7 11.3 5.9 12.7 14.9 12.9 12.3 11.1 12.3 10.7 10.5 12.9 17.1 14.4 13.7 21.1 24.1 19.5 18.6 21.5 22.7 21.3 21.4 19.8 23.1 20.5 19.9 21.6 24.5 25.5 32.4 23.6 24.4 23.7 26.6 23.1 20.3 17.5 19.0 17.4
11.3 11.5 11.1 15.0 13.1 10.7 12.9 14.0 12.0 5.7 12.4 13.6 23.3 18.3 10.2 14.0 21.6 16.4 17.7 21.0 17.3 28.9 20.7 22.1 18.2 17.9 19.9 29.3 36.2 35.8 38.3 39.9 38.9 36.2 32.5 23.3 23.5 19.0 19.6 21.5 16.9 15.1 13.3
14.3 11.9 12.0 11.0 17.7 13.9 13.0 15.9 10.8 15.6 19.1 14.9 18.4 13.3 14.4 13.9 15.7 22.1 20.6 16.6 18.8 17.2 14.9 14.9 15.4 15.9 16.2 17.0 23.8 30.1 29.7 4.3 19.9 4.7 28.7 20.6 25.1 26.0 24.7 20.3 18.6 15.7 12.9
11.5 12.2 12.8 13.4 13.0 14.4 15.1 14.8 15.5 12.1 15.9 17.3 16.4 16.7 14.5 14.7 14.7 17.7 16.5 16.6 13.5 14.2 14.6 15.8 15.5 13.4 12.7 14.8 15.9 6.7 4.0 3.5 24.2 4.0 23.5 19.9 23.3 22.5 22.1 22.2 20.5 18.5 14.8

GFSGL_prec_sndepth_063.txt.gz
Snowfall_Accumulation
0.0 0.0 0.0 0.0 0.0 0.0 0.0 0.0 0.0 0.0 0.0 0.0 0.0 0.0 0.0 0.0 0.0 0.0 0.0 0.0 0.0 0.0 0.0 0.0 0.0 0.0 0.0 0.0 0.0 0.0 0.0 0.1 0.5 0.1 0.0 0.0 0.0 0.1 0.1 0.1 0.1 0.0 0.0
0.0 0.0 0.0 0.0 0.0 0.0 0.0 0.0 0.0 0.0 0.0 0.0 0.0 0.0 0.0 0.0 0.0 0.0 0.0 0.0 0.0 0.0 0.0 0.0 0.0 0.0 0.1 0.0 0.0 0.0 0.1 0.1 0.2 0.3 0.1 0.1 0.1 0.1 0.1 0.1 0.0 0.0 0.0
0.0 0.0 0.0 0.0 0.0 0.0 0.0 0.0 0.0 0.0 0.0 0.0 0.0 0.0 0.0 0.0 0.0 0.0 0.0 0.0 0.0 0.0 0.0 0.0 0.0 0.1 0.2 0.3 0.1 0.2 0.2 0.1 0.1 0.5 0.3 0.2 0.2 0.2 0.1 0.1 0.0 0.0 0.0
0.0 0.0 0.0 0.0 0.0 0.0 0.0 0.0 0.0 0.0 0.0 0.0 0.0 0.0 0.0 0.0 0.0 0.0 0.0 0.0 0.0 0.0 0.0 0.0 0.0 0.0 0.1 0.2 0.3 0.3 0.3 0.7 0.6 0.5 0.4 0.2 0.2 0.2 0.1 0.0 0.0 0.0 0.0
0.0 0.0 0.0 0.0 0.0 0.0 0.1 0.1 0.1 0.1 0.0 0.0 0.0 0.0 0.0 0.0 0.0 0.0 0.0 0.1 0.1 0.0 0.1 0.1 0.0 0.0 nan nan 0.7 0.6 0.6 1.0 1.6 1.9 0.5 0.3 0.2 0.2 0.2 0.0 0.2 0.1 0.1
0.0 0.0 0.0 0.1 0.2 0.2 0.2 0.2 0.2 0.1 0.1 0.1 0.2 0.2 0.2 0.0 nan nan 0.1 0.2 0.2 0.1 0.2 0.2 0.3 0.5 0.4 nan nan nan nan 1.8 8.8 7.2 0.8 0.8 0.4 0.4 0.2 0.2 0.2 0.5 1.0
0.2 0.6 0.5 0.4 0.5 0.3 0.3 0.3 0.2 0.2 0.2 0.2 0.2 0.2 0.4 0.3 nan nan nan 0.5 0.5 0.3 0.3 0.5 0.8 0.7 0.4 0.4 nan nan nan nan nan 0.4 1.1 0.6 0.6 0.2 0.1 0.4 0.3 0.6 0.6
0.5 0.9 0.8 0.5 1.3 0.6 0.5 0.5 0.3 0.2 0.4 0.4 0.6 0.6 0.6 0.7 nan nan nan 0.6 0.7 0.6 0.6 0.7 1.0 1.2 1.0 0.7 0.6 1.4 1.0 0.9 0.6 0.4 0.4 0.5 0.4 0.2 0.6 0.9 1.6 1.9 1.4
0.2 0.4 0.4 0.9 1.7 0.8 2.4 0.8 0.5 1.2 1.0 1.9 1.7 3.4 3.1 3.0 nan nan 1.4 2.1 1.9 1.6 1.1 1.2 1.3 1.4 nan nan 2.5 5.0 3.6 2.3 nan nan nan nan nan nan nan 5.3 14.9 16.6 8.6
0.3 0.3 0.4 0.9 3.0 2.3 1.0 1.8 1.9 2.1 2.3 3.6 3.7 3.6 1.4 5.2 nan nan nan 5.8 6.7 4.4 2.8 1.9 1.1 1.9 nan nan 3.0 5.4 7.3 2.4 2.0 4.0 1.6 0.9 nan nan nan 0.9 5.0 16.3 8.6
0.8 0.9 1.1 1.1 3.4 1.7 2.1 1.7 3.0 4.5 3.3 5.4 5.4 4.6 4.9 2.9 3.0 nan nan 4.1 6.2 8.4 7.7 5.5 3.3 nan nan nan nan 5.5 5.1 3.0 7.8 6.0 4.6 4.2 2.5 1.8 1.9 1.4 0.7 2.6 7.4
1.8 2.1 2.7 4.4 3.5 3.4 7.6 4.7 7.2 6.8 7.2 6.9 7.5 6.8 5.7 3.4 nan nan nan nan nan 10.7 6.5 3.7 3.6 nan nan nan 2.2 nan nan 2.3 10.4 12.3 10.0 7.1 4.4 3.7 1.9 1.7 0.6 0.8 0.9
5.1 7.2 7.3 6.3 6.3 6.4 9.0 7.2 8.6 8.4 9.6 6.3 7.9 7.5 5.5 5.1 4.9 nan nan nan nan 6.0 4.0 3.3 nan nan nan nan nan nan 0.9 6.8 10.0 12.3 7.7 3.9 2.2 1.8 1.2 1.9 0.9 1.2 0.8
9.3 5.4 4.4 5.8 4.4 5.7 6.6 7.6 10.6 9.4 8.6 9.5 10.4 9.3 6.2 6.0 4.6 4.2 6.8 4.1 2.5 6.0 nan 4.5 nan 3.1 nan nan 3.1 2.9 4.8 5.8 6.5 7.3 5.5 2.5 2.1 3.4 5.0 3.6 5.6 4.8 8.6
6.7 3.9 4.7 6.3 7.0 4.5 3.9 5.9 5.3 3.4 6.8 12.5 14.5 10.5 13.3 13.4 9.3 4.3 10.2 12.7 10.7 10.8 9.0 14.8 12.5 8.0 7.2 6.0 7.5 6.7 5.8 7.1 8.2 7.6 7.9 7.1 6.3 6.2 5.6 4.3 5.1 7.5 10.0
4.2 5.7 5.1 4.9 4.3 4.0 4.4 4.3 nan nan nan nan nan 8.6 12.3 nan nan nan nan nan nan nan 21.4 24.1 12.6 9.4 6.9 6.7 8.5 8.2 7.4 6.2 7.0 8.0 8.7 7.7 8.2 6.8 7.3 8.2 7.6 9.1 10.1
6.7 5.0 6.2 4.8 5.3 5.8 6.0 6.9 7.9 4.5 nan nan nan nan nan nan nan nan nan nan nan nan 31.9 18.4 14.7 9.9 9.6 7.8 9.5 8.8 9.0 7.1 5.3 8.9 8.6 9.4 10.2 11.0 11.3 10.8 9.0 8.4 12.3
7.5 2.2 7.5 7.1 6.7 6.9 7.4 7.6 7.9 9.4 10.9 8.8 nan nan nan nan nan nan nan nan 26.2 nan 24.3 24.8 21.3 16.9 13.3 12.2 10.3 10.4 10.4 9.9 9.5 10.5 10.9 14.6 15.9 17.9 16.5 15.7 12.1 14.3 13.2
7.7 6.4 6.8 6.8 6.5 6.8 7.6 6.7 7.5 7.5 8.0 10.3 9.9 9.8 5.6 nan nan nan nan 18.4 26.0 22.9 22.6 23.5 19.9 19.0 15.9 16.9 16.0 17.8 15.1 15.7 15.2 19.8 19.8 21.3 19.1 19.8 19.1 13.4 10.6 6.5 7.7
8.2 3.3 6.1 10.3 8.6 7.7 5.6 7.6 6.9 7.2 8.3 9.8 10.3 9.0 15.4 15.4 22.2 23.1 19.0 25.9 26.2 23.5 20.9 23.1 23.8 26.4 26.6 24.2 23.6 21.9 22.2 22.9 20.9 22.2 22.3 20.6 18.9 19.6 13.8 18.3 15.6 13.5 14.5
13.3 11.5 2.4 10.0 12.3 12.4 12.5 10.0 7.8 11.0 9.8 12.0 9.4 8.9 nan 16.3 16.5 18.7 22.0 20.4 24.4 26.3 21.3 23.6 25.4 32.0 32.5 35.1 29.8 28.8 27.0 17.7 21.5 23.8 25.4 24.9 23.6 28.4 17.3 11.1 15.6 16.9 16.5
15.0 15.6 15.5 16.3 11.3 11.7 13.5 9.2 10.2 10.5 10.0 8.8 7.0 7.7 nan 9.7 12.5 13.2 15.3 20.7 24.8 24.7 28.1 32.9 32.6 35.4 31.9 29.7 27.1 25.0 21.1 24.9 26.8 25.4 21.1 22.2 25.7 22.2 20.9 14.3 14.8 12.9 16.7
12.7 11.2 12.0 11.7 11.3 5.9 12.6 14.8 12.9 12.3 11.1 12.2 10.7 10.5 12.9 17.0 14.3 13.7 21.0 24.1 19.4 18.6 21.5 22.6 21.2 21.3 19.8 23.1 20.5 19.8 21.6 24.5 25.5 32.2 23.6 24.3 23.6 26.5 23.1 20.2 17.5 19.0 17.4
11.5 11.7 11.1 14.9 13.0 10.6 12.9 14.0 11.9 5.7 12.4 13.6 23.3 18.2 10.2 13.9 21.5 16.4 17.6 21.0 17.2 28.8 20.7 22.1 18.2 17.9 19.8 29.2 36.1 35.6 38.1 39.7 38.7 36.0 32.3 23.3 23.4 19.0 19.6 21.4 16.9 15.1 13.3
14.3 11.9 12.0 10.9 17.6 13.8 12.9 15.9 10.8 15.6 19.0 14.8 18.4 13.2 14.3 13.9 15.7 22.0 20.5 16.6 18.7 17.2 14.9 14.9 15.4 15.9 16.2 16.9 23.7 30.0 29.6 4.3 19.9 4.7 28.6 20.6 25.0 25.9 24.7 20.2 18.6 15.7 12.9
11.5 12.2 12.8 13.4 12.9 14.3 15.1 14.8 15.5 12.0 15.9 17.3 16.4 16.7 14.5 14.7 14.7 17.7 16.5 16.6 13.5 14.1 14.6 15.7 15.5 13.4 12.7 14.8 15.9 6.7 4.0 3.5 24.1 4.0 23.4 19.8 23.2 22.5 22.0 22.1 20.4 18.5 14.8

GFSGL_prec_sndepth_069.txt.gz
Snowfall_Accumulation
0.0 0.0 0.0 0.0 0.0 0.0 0.0 0.0 0.0 0.0 0.0 0.0 0.0 0.0 0.0 0.0 0.0 0.0 0.0 0.0 0.0 0.0 0.0 0.0 0.0 0.0 0.0 0.0 0.0 0.0 0.0 0.0 0.5 0.2 0.1 0.1 0.1 0.1 0.1 0.1 0.1 0.1 0.1
0.0 0.0 0.0 0.0 0.0 0.0 0.0 0.0 0.0 0.0 0.0 0.0 0.0 0.0 0.0 0.0 0.0 0.0 0.0 0.0 0.0 0.0 0.0 0.0 0.0 0.0 0.1 0.0 0.0 0.0 0.1 0.1 0.2 0.3 0.2 0.3 0.3 0.2 0.3 0.4 0.4 0.2 0.2
0.0 0.0 0.0 0.0 0.0 0.0 0.0 0.0 0.0 0.0 0.0 0.0 0.0 0.0 0.0 0.0 0.0 0.0 0.0 0.0 0.0 0.0 0.0 0.0 0.0 0.1 0.1 0.2 0.1 0.2 0.2 0.1 0.1 0.5 0.7 0.5 0.5 0.4 0.4 0.4 0.4 0.2 0.2
0.0 0.0 0.0 0.0 0.0 0.0 0.0 0.0 0.0 0.0 0.0 0.0 0.0 0.0 0.0 0.0 0.0 0.0 0.0 0.0 0.0 0.0 0.0 0.0 0.0 0.0 0.1 0.2 0.2 0.3 0.3 0.6 0.6 0.7 0.9 0.8 0.6 0.6 0.6 0.4 0.4 0.3 0.4
0.0 0.0 0.0 0.0 0.0 0.0 0.1 0.1 0.1 0.1 0.0 0.0 0.0 0.1 0.0 0.0 0.0 0.0 0.0 0.1 0.1 0.1 0.1 0.1 0.0 0.0 nan nan 0.6 0.5 0.5 1.0 2.0 2.7 1.3 0.9 0.7 0.7 0.7 0.6 0.9 0.6 0.3
0.0 0.0 0.0 0.1 0.2 0.2 0.2 0.2 0.2 0.2 0.2 0.2 0.2 0.2 0.2 0.0 nan nan 0.1 0.1 0.2 0.1 0.2 0.2 0.3 0.4 0.3 nan nan nan nan 1.6 9.2 7.8 1.5 1.6 1.1 1.4 1.4 1.1 0.9 1.3 1.9
0.2 0.6 0.5 0.4 0.5 0.3 0.3 0.3 0.3 0.2 0.2 0.3 0.3 0.3 0.4 0.3 nan nan nan 0.4 0.4 0.2 0.3 0.4 0.8 0.7 0.5 0.4 nan nan nan nan nan 1.3 2.2 2.0 3.0 1.8 1.2 1.2 1.0 1.5 1.2
0.5 0.9 0.7 0.5 1.2 0.6 0.5 0.5 0.3 0.3 0.4 0.4 0.6 0.6 0.6 0.7 nan nan nan 0.5 0.7 0.6 0.5 0.7 1.0 1.2 1.0 0.8 1.0 2.0 1.8 1.9 1.7 1.5 1.6 2.1 1.6 1.1 1.2 1.6 2.4 2.7 2.1
0.2 0.4 0.4 0.8 1.7 0.8 2.4 0.9 0.6 1.2 1.0 1.9 1.8 3.4 3.1 2.8 nan nan 1.2 2.0 1.9 1.6 1.1 1.2 1.3 1.3 nan nan 3.7 6.5 5.4 4.1 nan nan nan nan nan nan nan 6.5 15.3 17.3 8.8
0.3 0.3 0.4 0.9 3.0 2.4 1.0 1.9 1.9 2.1 2.3 3.6 3.7 3.6 1.4 5.2 nan nan nan 5.7 6.6 4.4 2.8 1.9 1.2 2.0 nan nan 3.9 6.8 8.9 3.8 3.7 5.7 3.2 2.1 nan nan nan 1.2 5.1 16.5 8.9
0.8 0.9 1.1 1.1 3.4 1.7 2.1 1.7 3.1 4.5 3.3 5.4 5.3 4.6 4.9 2.9 3.0 nan nan 4.1 6.2 8.3 7.8 5.9 3.9 nan nan nan nan 6.5 6.1 4.3 9.2 7.6 6.1 5.2 3.2 2.3 2.2 1.9 1.1 2.8 7.5
1.8 2.1 2.8 4.4 3.5 3.4 7.6 4.7 7.2 6.8 7.2 6.9 7.4 6.7 5.7 3.4 nan nan nan nan nan 11.1 7.1 4.3 4.2 nan nan nan 2.9 nan nan 3.0 11.2 12.9 10.4 7.5 4.6 3.8 2.0 1.9 1.0 1.3 1.2
5.1 7.2 7.3 6.3 6.3 6.4 8.9 7.2 8.6 8.4 9.6 6.3 7.9 7.5 5.5 5.1 5.2 nan nan nan nan 6.6 4.6 4.0 nan nan nan nan nan nan 1.0 7.0 10.1 12.3 7.7 4.0 2.2 1.8 1.3 2.2 1.3 1.5 1.0
9.3 5.3 4.4 5.8 4.4 5.7 6.6 7.5 10.5 9.4 8.5 9.4 10.3 9.4 6.4 6.5 5.5 5.0 7.5 4.8 2.9 6.5 nan 4.8 nan 3.2 nan nan 3.2 2.9 4.9 5.9 6.5 7.3 5.5 2.5 2.2 3.5 5.3 3.8 5.8 5.0 9.0
6.7 3.9 4.7 6.3 7.0 4.5 3.9 5.9 5.3 3.4 7.0 13.0 15.1 11.3 14.1 14.1 10.2 4.9 10.7 12.9 10.7 10.8 8.9 14.7 12.5 8.1 7.3 6.0 7.5 6.8 5.9 7.2 8.4 7.8 8.2 7.3 6.5 6.4 5.8 4.6 5.4 7.9 10.4
4.2 5.7 5.1 5.0 4.6 4.3 4.9 5.1 nan nan nan nan nan 9.4 12.8 nan nan nan nan nan nan nan 21.0 23.7 12.5 9.4 6.9 6.7 8.5 8.3 7.6 6.3 7.2 8.3 8.9 8.0 8.4 7.0 7.6 8.5 7.9 9.5 10.5
6.9 5.2 6.5 5.2 6.1 6.8 7.3 8.3 9.4 6.4 nan nan nan nan nan nan nan nan nan nan nan nan 31.3 18.2 14.7 10.1 9.7 7.9 9.7 9.0 9.1 7.2 5.5 9.1 8.8 9.6 10.4 11.2 11.6 11.2 9.3 8.8 12.6
7.9 2.4 8.3 8.1 7.8 8.0 8.5 8.8 8.7 10.1 11.5 9.3 nan nan nan nan nan nan nan nan 25.8 nan 24.1 24.5 21.1 16.8 13.2 12.2 10.3 10.5 10.5 10.0 9.6 10.6 11.0 14.7 16.1 18.0 16.6 15.9 12.3 14.4 13.3
8.3 7.2 7.8 7.9 7.7 7.8 8.4 7.5 8.2 8.1 8.4 10.6 10.1 10.0 5.7 nan nan nan nan 18.2 25.7 22.6 22.4 23.3 19.8 18.9 15.9 16.9 16.0 17.7 15.1 15.7 15.2 19.8 19.8 21.3 19.2 19.8 19.1 13.5 10.7 6.6 7.7
9.1 3.6 6.7 11.1 9.6 8.6 6.3 8.2 7.5 7.7 8.4 9.9 10.5 9.2 15.4 15.3 22.0 23.0 18.9 25.7 26.0 23.4 20.8 22.9 23.7 26.2 26.4 24.1 23.5 21.8 22.1 22.8 20.8 22.1 22.2 20.5 18.8 19.5 13.8 18.2 15.5 13.5 14.4
13.9 12.2 2.7 10.8 13.1 13.2 13.2 10.6 8.1 11.1 10.0 12.1 9.5 8.9 nan 16.2 16.4 18.6 21.8 20.2 24.2 26.1 21.2 23.4 25.2 31.7 32.2 34.8 29.6 28.6 26.9 17.6 21.4 23.7 25.3 24.8 23.5 28.2 17.2 11.1 15.6 16.8 16.4
15.7 16.2 16.1 16.9 11.9 12.4 13.9 9.4 10.3 10.5 10.0 8.7 7.1 7.8 nan 9.7 12.5 13.1 15.2 20.6 24.7 24.6 27.9 32.7 32.3 35.1 31.7 29.4 26.9 24.8 21.0 24.8 26.6 25.3 21.0 22.1 25.6 22.1 20.8 14.3 14.8 12.9 16.7
13.5 12.0 12.9 12.8 12.2 6.2 13.5 15.3 13.1 12.3 11.1 12.2 10.6 10.5 12.8 16.9 14.3 13.6 20.9 23.9 19.3 18.5 21.4 22.5 21.1 21.2 19.7 23.0 20.4 19.8 21.5 24.3 25.3 32.0 23.4 24.2 23.5 26.4 23.0 20.2 17.4 18.9 17.4
12.5 13.0 12.6 16.6 14.4 11.8 13.8 14.7 12.4 5.8 12.4 13.5 23.1 18.1 10.2 13.9 21.4 16.3 17.6 20.9 17.2 28.6 20.6 22.0 18.1 17.8 19.8 29.1 35.9 35.4 37.9 39.5 38.5 35.7 32.1 23.1 23.3 18.9 19.5 21.4 16.8 15.1 13.3
16.9 14.4 14.3 13.0 19.2 15.1 14.0 16.6 11.0 15.5 18.9 14.8 18.2 13.2 14.3 13.9 15.6 21.9 20.4 16.6 18.7 17.1 14.9 14.9 15.4 15.8 16.1 16.9 23.6 29.9 29.4 4.3 19.8 4.7 28.4 20.5 24.9 25.7 24.5 20.2 18.5 15.6 12.9
14.0 14.6 14.9 15.2 14.5 15.3 15.7 14.9 15.4 12.0 15.8 17.2 16.3 16.6 14.5 14.6 14.6 17.6 16.4 16.5 13.5 14.1 14.5 15.7 15.4 13.4 12.7 14.7 15.8 6.7 4.0 3.5 24.0 4.0 23.3 19.7 23.1 22.4 21.9 22.0 20.3 18.4 14.8

GFSGL_prec_sndepth_072.txt.gz
Snowfall_Accumulation
0.0 0.0 0.0 0.0 0.0 0.0 0.0 0.0 0.0 0.0 0.0 0.0 0.0 0.0 0.0 0.0 0.0 0.0 0.0 0.0 0.0 0.0 0.0 0.0 0.0 0.0 0.0 0.0 0.0 0.0 0.0 0.0 0.4 0.2 0.1 0.1 0.1 0.1 0.1 0.1 0.1 0.1 0.1
0.0 0.0 0.0 0.0 0.0 0.0 0.0 0.0 0.0 0.0 0.0 0.0 0.0 0.0 0.0 0.0 0.0 0.0 0.0 0.0 0.0 0.0 0.0 0.0 0.0 0.0 0.1 0.0 0.0 0.0 0.1 0.1 0.2 0.2 0.2 0.3 0.3 0.2 0.3 0.4 0.3 0.2 0.2
0.0 0.0 0.0 0.0 0.0 0.0 0.0 0.0 0.0 0.0 0.0 0.0 0.0 0.0 0.0 0.0 0.0 0.0 0.0 0.0 0.0 0.0 0.0 0.0 0.0 0.1 0.1 0.2 0.1 0.2 0.2 0.1 0.1 0.5 0.7 0.5 0.5 0.4 0.5 0.5 0.6 0.7 0.6
0.0 0.0 0.0 0.0 0.0 0.0 0.0 0.0 0.0 0.0 0.0 0.0 0.0 0.0 0.0 0.0 0.0 0.0 0.0 0.0 0.0 0.0 0.0 0.0 0.0 0.0 0.1 0.1 0.2 0.2 0.2 0.6 0.6 0.6 1.2 0.9 0.8 0.8 0.8 1.0 1.5 1.2 1.2
0.0 0.0 0.0 0.0 0.0 0.0 0.1 0.1 0.1 0.1 0.0 0.0 0.0 0.1 0.0 0.0 0.0 0.0 0.0 0.1 0.1 0.1 0.1 0.1 0.0 0.0 nan nan 0.5 0.5 0.5 0.9 1.9 2.6 1.5 1.1 0.9 1.1 1.3 1.4 2.3 1.6 1.2
0.0 0.0 0.0 0.1 0.2 0.2 0.2 0.2 0.2 0.2 0.2 0.2 0.2 0.2 0.2 0.0 nan nan 0.1 0.1 0.2 0.1 0.2 0.1 0.2 0.4 0.3 nan nan nan nan 1.3 8.4 7.1 1.6 1.8 1.8 2.4 2.8 2.4 2.2 2.7 2.8
0.2 0.6 0.5 0.4 0.5 0.3 0.3 0.3 0.3 0.3 0.2 0.3 0.3 0.3 0.5 0.3 nan nan nan 0.4 0.4 0.2 0.3 0.4 0.7 0.6 0.5 0.4 nan nan nan nan nan 1.2 2.7 3.0 4.6 3.5 3.0 2.7 2.1 2.5 1.8
0.5 0.9 0.7 0.5 1.2 0.6 0.5 0.5 0.4 0.3 0.4 0.4 0.6 0.6 0.6 0.7 nan nan nan 0.5 0.6 0.5 0.5 0.7 0.9 1.2 1.0 0.8 1.0 2.0 1.8 2.0 2.0 2.4 2.8 3.5 2.9 2.0 1.8 2.1 2.9 3.2 2.6
0.2 0.4 0.4 0.8 1.7 0.8 2.4 0.9 0.6 1.2 1.0 1.9 1.8 3.4 3.1 2.8 nan nan 1.1 1.8 1.9 1.6 1.1 1.2 1.3 1.3 nan nan 3.7 6.6 6.0 4.7 nan nan nan nan nan nan nan 6.9 15.8 17.6 9.2
0.3 0.3 0.4 0.9 3.0 2.4 1.0 1.9 1.9 2.1 2.3 3.6 3.7 3.6 1.4 5.1 nan nan nan 5.7 6.6 4.4 2.8 1.9 1.2 2.0 nan nan 4.2 7.3 9.5 4.6 4.3 6.4 3.6 2.1 nan nan nan 1.7 5.4 16.7 9.3
0.8 0.9 1.1 1.1 3.4 1.7 2.2 1.7 3.1 4.5 3.3 5.4 5.3 4.6 4.9 2.9 3.0 nan nan 4.1 6.1 8.3 7.8 5.9 4.0 nan nan nan nan 7.1 6.5 4.8 9.4 8.3 6.8 5.9 3.8 2.8 2.7 2.3 1.4 2.9 7.6
1.8 2.1 2.8 4.4 3.5 3.4 7.6 4.7 7.2 6.8 7.2 6.9 7.4 6.7 5.7 3.4 nan nan nan nan nan 11.2 7.3 4.5 4.5 nan nan nan 3.1 nan nan 3.4 11.8 13.5 11.1 8.0 4.8 4.0 2.3 2.1 1.1 1.4 1.3
5.1 7.2 7.3 6.3 6.3 6.4 8.9 7.2 8.6 8.4 9.6 6.3 7.9 7.4 5.5 5.1 5.2 nan nan nan nan 6.9 4.9 4.3 nan nan nan nan nan nan 1.3 7.7 10.7 12.8 8.0 4.1 2.2 1.9 1.4 2.3 1.3 1.5 1.0
9.3 5.4 4.4 5.8 4.4 5.7 6.6 7.5 10.5 9.4 8.5 9.4 10.3 9.5 6.5 6.7 6.0 5.4 7.8 5.1 3.1 6.9 nan 5.3 nan 3.9 nan nan 3.6 3.2 5.1 6.1 6.6 7.4 5.5 2.6 2.3 3.6 5.3 3.8 5.8 5.1 9.0
6.7 3.9 4.7 6.3 7.0 4.5 3.9 5.9 5.3 3.4 7.0 13.0 15.1 11.4 14.2 14.4 10.7 5.4 11.1 13.4 11.3 11.4 9.2 15.1 12.8 8.3 7.5 6.2 7.7 6.9 6.0 7.3 8.5 7.9 8.2 7.3 6.5 6.5 5.8 4.7 5.5 8.0 10.4
4.2 5.7 5.1 5.0 4.6 4.3 5.0 5.1 nan nan nan nan nan 9.4 13.1 nan nan nan nan nan nan nan 20.8 23.5 12.5 9.4 6.9 6.8 8.6 8.4 7.6 6.3 7.2 8.3 8.9 8.0 8.4 7.0 7.6 8.5 7.9 9.5 10.5
6.9 5.2 6.5 5.2 6.1 6.9 7.3 8.4 9.4 6.5 nan nan nan nan nan nan nan nan nan nan nan nan 31.1 18.2 14.7 10.1 9.7 7.9 9.6 9.0 9.1 7.2 5.5 9.1 8.7 9.6 10.3 11.2 11.6 11.2 9.3 8.8 12.7
7.9 2.4 8.3 8.1 7.8 8.0 8.5 8.9 8.8 10.3 11.7 9.7 nan nan nan nan nan nan nan nan 25.7 nan 23.9 24.4 21.0 16.7 13.1 12.1 10.3 10.5 10.5 10.0 9.6 10.6 11.0 14.7 16.1 18.0 16.6 15.9 12.3 14.5 13.4
8.3 7.2 7.8 8.0 7.7 7.9 8.5 7.8 8.5 8.5 8.9 11.1 10.6 10.5 5.9 nan nan nan nan 18.1 25.5 22.5 22.3 23.2 19.7 18.8 15.9 16.8 15.9 17.7 15.1 15.6 15.2 19.8 19.8 21.2 19.1 19.7 19.1 13.5 10.7 6.6 7.7
9.1 3.7 6.7 11.2 9.7 8.8 6.6 8.6 7.9 8.2 9.0 10.5 10.9 9.4 15.5 15.4 22.0 22.9 18.8 25.5 25.8 23.3 20.7 22.8 23.6 26.1 26.3 24.0 23.4 21.7 22.0 22.7 20.7 22.1 22.1 20.5 18.8 19.5 13.8 18.2 15.5 13.5 14.4
13.9 12.2 2.7 10.9 13.3 13.3 13.4 11.0 8.7 11.8 10.6 12.5 9.8 9.0 nan 16.1 16.4 18.5 21.7 20.2 24.1 26.0 21.2 23.4 25.2 31.6 32.1 34.6 29.5 28.5 26.8 17.6 21.4 23.7 25.2 24.7 23.5 28.1 17.2 11.1 15.6 16.8 16.4
15.7 16.1 16.1 17.0 12.1 12.7 14.4 10.1 11.2 11.2 10.6 9.1 7.2 7.8 nan 9.6 12.4 13.1 15.2 20.5 24.6 24.5 27.8 32.5 32.2 34.9 31.5 29.3 26.8 24.7 21.0 24.7 26.5 25.3 21.0 22.0 25.5 22.1 20.8 14.3 14.8 12.8 16.6
13.5 12.1 13.0 13.0 12.6 6.4 14.3 16.3 14.2 13.4 11.9 12.8 10.7 10.4 12.8 16.9 14.2 13.6 20.8 23.9 19.3 18.5 21.3 22.4 21.1 21.2 19.7 22.9 20.4 19.7 21.4 24.3 25.2 31.9 23.4 24.1 23.4 26.3 22.9 20.1 17.4 18.9 17.3
12.6 13.1 12.8 16.9 15.0 12.6 14.8 15.9 13.7 6.1 13.5 14.1 23.3 18.1 10.2 13.8 21.3 16.2 17.5 20.8 17.1 28.5 20.6 21.9 18.1 17.8 19.7 29.0 35.8 35.3 37.8 39.3 38.4 35.6 32.0 23.1 23.2 18.9 19.5 21.3 16.8 15.1 13.3
17.1 14.6 14.7 13.6 20.0 16.2 15.3 18.1 12.7 17.1 19.9 15.3 18.3 13.1 14.2 13.8 15.6 21.8 20.4 16.5 18.6 17.1 14.8 14.9 15.3 15.8 16.1 16.9 23.6 29.8 29.4 4.3 19.7 4.7 28.4 20.5 24.8 25.7 24.5 20.1 18.5 15.6 12.9
14.4 15.0 15.6 16.1 15.6 16.8 17.3 16.7 16.9 13.1 16.3 17.2 16.2 16.6 14.4 14.6 14.6 17.6 16.4 16.5 13.4 14.1 14.5 15.7 15.4 13.4 12.7 14.7 15.8 6.7 4.0 3.5 23.9 4.0 23.2 19.7 23.1 22.3 21.9 22.0 20.3 18.4 14.8

GFSGL_prec_sndepth_075.txt.gz
Snowfall_Accumulation
0.0 0.0 0.0 0.0 0.0 0.0 0.0 0.0 0.0 0.0 0.0 0.0 0.0 0.0 0.0 0.0 0.0 0.0 0.0 0.0 0.0 0.0 0.0 0.0 0.0 0.0 0.0 0.0 0.0 0.0 0.0 0.0 0.4 0.2 0.1 0.1 0.1 0.1 0.1 0.1 0.1 0.1 0.1
0.0 0.0 0.0 0.0 0.0 0.0 0.0 0.0 0.0 0.0 0.0 0.0 0.0 0.0 0.0 0.0 0.0 0.0 0.0 0.0 0.0 0.0 0.0 0.0 0.0 0.0 0.1 0.0 0.0 0.0 0.1 0.1 0.2 0.1 0.2 0.3 0.2 0.2 0.2 0.3 0.3 0.1 0.2
0.0 0.0 0.0 0.0 0.0 0.0 0.0 0.0 0.0 0.0 0.0 0.0 0.0 0.0 0.0 0.0 0.0 0.0 0.0 0.0 0.0 0.0 0.0 0.0 0.0 0.1 0.1 0.2 0.0 0.2 0.2 0.1 0.1 0.4 0.6 0.5 0.5 0.4 0.5 0.6 0.8 0.9 0.7
0.0 0.0 0.0 0.0 0.0 0.0 0.0 0.0 0.0 0.0 0.0 0.0 0.0 0.0 0.0 0.0 0.0 0.0 0.0 0.0 0.0 0.0 0.0 0.0 0.0 0.0 0.1 0.1 0.2 0.2 0.2 0.5 0.5 0.6 1.1 0.9 0.8 0.8 0.8 1.1 1.9 1.7 2.1
0.0 0.0 0.0 0.0 0.0 0.0 0.1 0.1 0.1 0.1 0.0 0.0 0.0 0.1 0.0 0.0 0.0 0.0 0.0 0.1 0.1 0.1 0.1 0.1 0.1 0.0 nan nan 0.5 0.4 0.4 0.7 1.7 2.3 1.4 1.1 0.9 1.1 1.5 1.7 3.2 2.6 2.2
0.0 0.0 0.0 0.1 0.2 0.2 0.2 0.2 0.2 0.2 0.2 0.2 0.2 0.2 0.2 0.0 nan nan 0.1 0.1 0.2 0.1 0.1 0.1 0.2 0.3 0.2 nan nan nan nan 1.0 7.0 6.3 1.5 1.8 1.8 2.7 3.5 3.2 3.2 3.9 4.6
0.2 0.6 0.5 0.4 0.5 0.3 0.3 0.3 0.3 0.3 0.2 0.3 0.3 0.3 0.5 0.3 nan nan nan 0.4 0.3 0.2 0.2 0.3 0.6 0.5 0.4 0.3 nan nan nan nan nan 1.1 2.6 3.4 5.4 4.3 4.0 4.0 3.2 3.5 2.6
0.5 0.9 0.7 0.5 1.2 0.6 0.5 0.5 0.4 0.3 0.4 0.4 0.6 0.6 0.6 0.7 nan nan nan 0.4 0.5 0.4 0.4 0.6 0.8 1.0 0.9 0.7 0.9 1.8 1.7 1.9 1.8 2.3 3.1 4.1 3.6 2.5 2.2 2.5 3.4 3.6 3.2
0.2 0.4 0.4 0.8 1.7 0.8 2.4 0.9 0.6 1.2 1.0 1.9 1.8 3.4 3.1 2.8 nan nan 1.0 1.7 1.6 1.5 1.0 1.2 1.2 1.3 nan nan 3.5 6.4 6.3 5.3 nan nan nan nan nan nan nan 7.4 16.3 18.1 9.6
0.3 0.3 0.4 0.9 3.0 2.4 1.0 1.9 1.9 2.1 2.3 3.6 3.7 3.6 1.4 5.1 nan nan nan 5.4 6.6 4.3 2.8 1.9 1.2 1.9 nan nan 4.2 7.5 9.9 5.0 4.9 6.8 4.0 2.3 nan nan nan 2.0 5.7 17.2 9.8
0.9 0.9 1.1 1.1 3.4 1.7 2.2 1.7 3.1 4.5 3.3 5.4 5.3 4.6 4.9 2.9 3.0 nan nan 4.0 6.0 8.3 7.7 5.9 4.0 nan nan nan nan 7.2 7.0 5.0 9.4 8.7 7.5 6.6 4.5 3.3 3.1 2.7 1.8 3.2 7.7
1.8 2.1 2.8 4.4 3.5 3.4 7.6 4.7 7.2 6.8 7.2 6.9 7.4 6.7 5.7 3.4 nan nan nan nan nan 11.1 7.3 4.6 4.6 nan nan nan 3.2 nan nan 3.7 12.6 14.2 11.6 8.7 5.5 4.6 2.7 2.2 1.1 1.4 1.3
5.1 7.2 7.3 6.3 6.3 6.4 8.9 7.2 8.6 8.4 9.5 6.3 7.9 7.4 5.5 5.1 5.2 nan nan nan nan 6.9 4.9 4.4 nan nan nan nan nan nan 1.5 8.2 11.2 13.3 8.4 4.4 2.3 1.9 1.4 2.3 1.3 1.5 1.0
9.3 5.4 4.4 5.7 4.4 5.7 6.6 7.5 10.5 9.3 8.5 9.4 10.3 9.4 6.5 6.7 6.0 5.4 7.7 5.1 3.1 7.0 nan 5.5 nan 4.2 nan nan 3.9 3.7 5.4 6.3 6.7 7.4 5.6 2.6 2.3 3.6 5.3 3.8 5.8 5.1 9.0
6.7 3.9 4.7 6.3 7.0 4.5 3.9 5.9 5.3 3.4 7.0 13.0 15.1 11.4 14.2 14.4 10.8 5.4 11.1 13.4 11.3 11.5 9.3 15.3 13.0 8.7 7.7 6.3 7.8 7.0 6.0 7.3 8.5 7.8 8.2 7.3 6.5 6.5 5.8 4.7 5.5 8.0 10.4
4.3 5.7 5.1 5.0 4.5 4.3 5.0 5.1 nan nan nan nan nan 9.5 13.1 nan nan nan nan nan nan nan 20.7 23.4 12.4 9.4 6.9 6.8 8.6 8.3 7.6 6.3 7.2 8.2 8.9 8.0 8.4 7.0 7.6 8.5 7.9 9.5 10.5
6.9 5.3 6.5 5.2 6.1 6.8 7.3 8.4 9.3 6.5 nan nan nan nan nan nan nan nan nan nan nan nan 30.8 18.1 14.6 10.1 9.7 7.9 9.6 8.9 9.1 7.2 5.5 9.1 8.7 9.5 10.3 11.2 11.6 11.1 9.3 8.8 12.7
7.9 2.4 8.3 8.1 7.8 8.0 8.5 8.9 8.8 10.3 11.7 9.7 nan nan nan nan nan nan nan nan 25.6 nan 23.9 24.3 20.9 16.6 13.1 12.1 10.2 10.4 10.5 10.0 9.6 10.6 10.9 14.7 16.0 17.9 16.6 15.8 12.3 14.5 13.3
8.3 7.2 7.8 8.0 7.7 7.9 8.5 7.8 8.5 8.7 9.0 11.3 10.9 11.2 6.4 nan nan nan nan 18.1 25.4 22.5 22.2 23.1 19.6 18.7 15.8 16.8 15.9 17.6 15.0 15.6 15.1 19.7 19.7 21.1 19.1 19.7 19.1 13.5 10.7 6.6 7.7
9.1 3.7 6.7 11.2 9.7 8.8 6.6 8.6 8.0 8.4 9.3 10.8 11.4 10.1 16.4 15.9 22.5 23.3 19.1 25.4 25.7 23.2 20.6 22.7 23.5 26.0 26.1 23.9 23.3 21.6 21.9 22.6 20.7 22.0 22.0 20.4 18.8 19.4 13.8 18.2 15.5 13.5 14.4
13.9 12.2 2.7 10.9 13.3 13.3 13.4 11.1 8.8 12.0 11.0 13.1 10.5 9.9 nan 16.8 17.2 18.9 21.7 20.1 24.0 25.9 21.1 23.3 25.1 31.5 31.9 34.5 29.3 28.4 26.7 17.5 21.3 23.6 25.1 24.6 23.4 28.1 17.2 11.1 15.6 16.8 16.4
15.7 16.1 16.1 17.0 12.1 12.7 14.5 10.3 11.4 11.5 11.1 9.8 8.0 8.6 nan 10.6 13.1 13.2 15.2 20.4 24.5 24.4 27.7 32.4 32.0 34.8 31.4 29.2 26.7 24.6 20.9 24.6 26.5 25.2 20.9 22.0 25.5 22.0 20.7 14.2 14.7 12.8 16.6
13.6 12.1 13.0 13.0 12.6 6.4 14.5 16.5 14.5 13.8 12.5 13.6 11.9 11.7 13.7 17.2 14.4 13.6 20.7 23.8 19.2 18.4 21.3 22.4 21.0 21.1 19.6 22.8 20.3 19.7 21.4 24.2 25.2 31.8 23.3 24.1 23.4 26.3 22.9 20.1 17.4 18.9 17.3
12.6 13.1 12.9 17.0 15.1 12.8 15.0 16.1 14.1 6.2 14.5 15.3 24.5 19.3 11.2 14.4 21.5 16.2 17.4 20.7 17.1 28.4 20.5 21.8 18.0 17.7 19.7 28.9 35.6 35.2 37.6 39.2 38.2 35.5 31.9 23.0 23.2 18.8 19.5 21.3 16.8 15.1 13.2
17.1 14.7 14.8 13.8 20.1 16.5 15.7 18.6 13.4 18.0 21.1 16.7 19.9 14.5 15.2 14.1 15.6 21.8 20.3 16.5 18.6 17.1 14.8 14.8 15.3 15.8 16.1 16.8 23.5 29.7 29.3 4.3 19.7 4.7 28.3 20.4 24.8 25.6 24.4 20.1 18.4 15.6 12.9
14.5 15.2 15.8 16.3 15.9 17.3 17.9 17.5 17.9 14.3 17.8 18.8 17.4 17.3 14.6 14.6 14.6 17.5 16.3 16.4 13.4 14.1 14.5 15.6 15.4 13.3 12.6 14.7 15.8 6.7 4.0 3.5 23.8 4.0 23.2 19.7 23.0 22.3 21.8 21.9 20.3 18.4 14.8